Overview Statistics Trail Chart Weather Telemetry Raw packets
 

This is the latest recevied weather packets stored in our database for station/object K5FEP. If no packets are shown the sender has not sent any weather packets the latest 10 day(s).

<< 89 90 91 92 93 94 95 >>
Time Temp. Humidity Pressure Rain* Wind** Luminosity Snow
1787980036 21.11° C 95% 1018.7 hPa 0 mm - 0 W/m² -
1787979732 21.11° C 95% 1018.5 hPa 0 mm - 0 W/m² -
1787979430 21.11° C 95% 1018.3 hPa 0 mm - 0 W/m² -
1787979130 21.67° C 95% 1018.2 hPa 0 mm - 0 W/m² -
1787978829 21.67° C 95% 1018.4 hPa 0 mm - 0 W/m² -
1787978524 21.11° C 94% 1018.7 hPa 0 mm - 0 W/m² -
1787978220 21.67° C 94% 1018.4 hPa 0 mm - 0 W/m² -
1787977919 21.11° C 94% 1018.6 hPa 1.27 mm - 0 W/m² -
1787977619 21.11° C 94% 1018.6 hPa 1.27 mm - 0 W/m² -
1787977315 21.11° C 94% 1018.6 hPa 1.78 mm - 0 W/m² -
1787977010 21.67° C 94% 1018.6 hPa 4.32 mm - 0 W/m² -
1787976710 21.67° C 94% 1018.6 hPa 10.67 mm - 0 W/m² -
1787976400 21.67° C 93% 1018.4 hPa 10.67 mm - 0 W/m² -
1787976100 21.67° C 93% 1018.6 hPa 6.1 mm - 0 W/m² -
1787975799 21.67° C 93% 1018.5 hPa 6.1 mm - 0 W/m² -
1787975498 21.67° C 92% 1018.4 hPa 10.67 mm - 0 W/m² -
1787975197 21.67° C 92% 1018.2 hPa 7.87 mm - 0 W/m² -
1787974896 21.67° C 91% 1018.3 hPa 1.27 mm - 0 W/m² -
1787974595 21.67° C 90% 1018.2 hPa 0 mm - 0 W/m² -
1787974290 21.67° C 88% 1018.1 hPa 0 mm - 0 W/m² -
1787973989 22.22° C 86% 1018.3 hPa 3.05 mm - 0 W/m² -
1787973685 23.33° C 81% 1017.9 hPa 3.05 mm - 0 W/m² -
1787973380 23.89° C 74% 1018.2 hPa 0 mm - 0 W/m² -
1787973079 23.89° C 72% 1018.1 hPa 0 mm - 0 W/m² -
1787972775 23.89° C 71% 1018.1 hPa 0 mm - 0 W/m² -

* Rain latest hour (hover to see other rain measurements)
** Current wind speed in m/s (hover to see current wind gust speed)